Retour au catalogue

STARLINK-3290

ActifCommunicationsVLEO
NORAD 50828·PAYLOAD·🇺🇸 United States

Lancé Jan 6, 2022 depuis Cape Canaveral Space Force Station

Loading…

Prochains Passages (prochaines 24 heures)

TLE

FraisSource: CelesTrak SupGP

Époque: Sep 15, 2026, 02:20 UTC

1 50828C 22001AB  26258.09770833 -.00043828  00000+0 -14096-2 0  2584
2 50828  53.1593  28.9562 0001067  85.7316 147.7150 15.31720611    10

Suivez STARLINK-3290 en temps réel avec AllMySat

Download on the App Store